TimeCST,TemperatureF,Dew PointF,Humidity,Sea Level PressureIn,VisibilityMPH,Wind Direction,Wind SpeedMPH,Gust SpeedMPH,PrecipitationIn,Events,Conditions,WindDirDegrees,DateUTC
12:53 AM,30.0,25.0,82,30.10,10.0,ENE,6.9,-,N/A,,Clear,60,2013-11-05 06:53:00
1:53 AM,30.9,26.1,82,30.08,10.0,ENE,8.1,-,N/A,,Clear,70,2013-11-05 07:53:00
2:53 AM,33.1,28.0,82,30.06,10.0,ENE,8.1,-,N/A,,Overcast,70,2013-11-05 08:53:00
3:53 AM,34.0,28.9,82,30.02,10.0,ENE,9.2,-,N/A,,Overcast,70,2013-11-05 09:53:00
4:53 AM,35.1,30.0,82,30.04,10.0,ENE,5.8,-,0.00,,Overcast,60,2013-11-05 10:53:00
5:53 AM,36.0,33.1,89,30.02,7.0,ENE,8.1,-,0.01,Rain,Light Rain,60,2013-11-05 11:53:00
6:31 AM,37.4,35.6,93,29.98,8.0,ENE,9.2,-,0.00,,Overcast,60,2013-11-05 12:31:00
6:53 AM,37.9,36.0,93,30.02,5.0,NE,11.5,-,0.00,Rain,Light Rain,50,2013-11-05 12:53:00
7:17 AM,37.4,35.6,93,29.97,2.5,NE,12.7,-,0.04,Rain,Light Rain,40,2013-11-05 13:17:00
7:34 AM,37.4,35.6,93,29.96,3.0,NE,13.8,-,0.06,Rain,Light Rain,50,2013-11-05 13:34:00
7:44 AM,37.4,35.6,93,29.96,2.5,NE,12.7,-,0.09,Rain,Heavy Rain,50,2013-11-05 13:44:00
7:53 AM,37.9,36.0,93,30.00,3.0,ENE,16.1,-,0.10,Rain,Light Rain,60,2013-11-05 13:53:00
7:56 AM,37.4,35.6,93,29.95,2.5,ENE,15.0,-,0.00,Rain,Light Rain,60,2013-11-05 13:56:00
8:08 AM,37.4,35.6,93,29.95,1.8,ENE,16.1,-,0.02,Rain,Rain,60,2013-11-05 14:08:00
8:12 AM,37.4,35.6,93,29.95,2.0,ENE,16.1,-,0.02,Rain,Light Rain,60,2013-11-05 14:12:00
8:19 AM,37.4,35.6,93,29.94,2.0,ENE,16.1,-,0.03,Rain,Rain,60,2013-11-05 14:19:00
8:43 AM,37.4,35.6,93,29.94,2.0,ENE,15.0,-,0.06,Rain,Light Rain,60,2013-11-05 14:43:00
8:53 AM,37.9,36.0,93,29.99,2.0,ENE,17.3,-,0.06,Rain,Light Rain,60,2013-11-05 14:53:00
9:11 AM,37.4,35.6,93,29.96,1.5,ENE,13.8,-,0.03,Rain,Rain,60,2013-11-05 15:11:00
9:53 AM,37.0,36.0,96,30.01,1.8,NE,15.0,-,0.16,Rain,Rain,50,2013-11-05 15:53:00
10:01 AM,37.4,35.6,93,29.95,2.0,NE,13.8,-,0.03,Rain,Rain,40,2013-11-05 16:01:00
10:24 AM,37.4,35.6,93,29.96,4.0,NE,13.8,-,0.08,Rain,Light Rain,50,2013-11-05 16:24:00
10:53 AM,37.9,36.0,93,29.99,6.0,NE,17.3,-,0.10,Rain,Light Rain,40,2013-11-05 16:53:00
11:53 AM,37.9,36.0,93,29.99,9.0,NE,13.8,-,0.01,,Overcast,50,2013-11-05 17:53:00
12:53 PM,37.0,35.1,93,30.03,7.0,NNW,15.0,-,0.01,Rain,Light Rain,330,2013-11-05 18:53:00
1:09 PM,37.4,35.6,93,29.96,4.0,NNW,12.7,-,0.01,Rain,Light Rain,330,2013-11-05 19:09:00
1:25 PM,37.4,35.6,93,29.97,3.0,NW,17.3,-,0.01,,Overcast,320,2013-11-05 19:25:00
1:33 PM,35.6,33.8,93,29.97,2.5,NNW,17.3,-,0.01,,Overcast,330,2013-11-05 19:33:00
1:53 PM,36.0,34.0,93,30.02,1.8,NNW,17.3,-,0.02,,Overcast,330,2013-11-05 19:53:00
2:08 PM,35.6,33.8,93,29.97,2.0,NNW,20.7,-,0.00,Snow,Light Snow,340,2013-11-05 20:08:00
2:20 PM,35.6,33.8,93,29.98,3.0,NNW,20.7,-,0.00,Snow,Light Snow,340,2013-11-05 20:20:00
2:53 PM,35.1,33.1,92,30.04,10.0,North,20.7,27.6,0.01,,Overcast,350,2013-11-05 20:53:00
3:53 PM,35.1,33.1,92,30.08,10.0,North,18.4,-,0.00,,Overcast,350,2013-11-05 21:53:00
4:53 PM,36.0,32.0,86,30.10,10.0,North,17.3,24.2,0.00,,Overcast,350,2013-11-05 22:53:00
5:53 PM,35.1,32.0,89,30.15,10.0,NNW,15.0,-,N/A,,Overcast,330,2013-11-05 23:53:00
6:53 PM,35.1,30.9,85,30.17,10.0,NNW,15.0,-,N/A,,Overcast,340,2013-11-06 00:53:00
7:53 PM,34.0,30.9,89,30.19,10.0,NNW,11.5,-,N/A,,Overcast,330,2013-11-06 01:53:00
8:53 PM,34.0,30.9,89,30.20,10.0,NW,11.5,-,N/A,,Overcast,320,2013-11-06 02:53:00
9:53 PM,32.0,30.0,92,30.21,10.0,NW,12.7,-,N/A,,Partly Cloudy,320,2013-11-06 03:53:00
10:53 PM,30.9,28.9,92,30.22,10.0,WNW,5.8,-,N/A,,Scattered Clouds,290,2013-11-06 04:53:00
11:53 PM,30.0,28.0,92,30.21,10.0,WNW,8.1,-,N/A,,Clear,300,2013-11-06 05:53:00